Weather History for KONM - June, 2013

Change the Weather History Date:

Monday, June 17, 2013

  Actual Average Record
Temperature  
Mean Temperature 80 °F -  
Max Temperature 95 °F 93 °F 96 °F (2011)
Min Temperature 66 °F 53 °F 59 °F (2012)
Cooling Degree Days 16    
Growing Degree Days 30 (Base 50)    
Moisture  
Dew Point 39 °F    
Average Humidity 24    
Maximum Humidity 60    
Minimum Humidity 12    
Precipitation  
Precipitation 0.02 in - - ()
Sea Level Pressure  
Sea Level Pressure 30.06 in    
Wind  
Wind Speed 5 mph (ENE)    
Max Wind Speed 14 mph    
Max Gust Speed 24 mph    
Visibility 10 miles    
Events Rain , Thunderstorm    
Averages and records for this station are not official NWS values.
T = Trace of Precipitation, MM = Missing Value Source: NWS Daily Summary

Daily Weather History Graph

Daily Weather History Graph

Search for Another Location

Airport or City:

Trip Planner

Search our weather history database for the weather conditions in past years. The results will help you decide how hot, cold, wet, or windy it might be!

Date:

Astronomy

Jun. 17, 2013 Rise Set
Actual Time 5:56 AM MDT 8:21 PM MDT
Civil Twilight 5:26 AM MDT 8:50 PM MDT
Nautical Twilight 4:50 AM MDT 9:26 PM MDT
Astronomical Twilight 4:11 AM MDT 10:05 PM MDT
Moon 2:16 PM MDT (6/17) 1:18 AM MDT (6/17)
Length of Visible Light 15h 23m
Length of Day
14h 25m
First Quarter, 61% of the Moon is Illuminated
Jun 17
First Quarter
Jun 23
Full
Jun 29
Last Quarter
Jul 8
New
Jul 15
First Quarter

Hourly Weather History & Observations

Time (MDT) Temp. Dew Point Humidity Pressure Visibility Wind Dir Wind Speed Gust Speed Precip Events Conditions
12:15 AM 78.3 °F 38.7 °F 24% 30.10 in 10.0 mi North 6.9 mph - N/A   Mostly Cloudy
12:35 AM 77.7 °F 38.8 °F 25% 30.10 in 10.0 mi WNW 4.6 mph - N/A   Scattered Clouds
12:55 AM 77.7 °F 39.2 °F 25% 30.10 in 10.0 mi North 8.1 mph - N/A   Scattered Clouds
1:15 AM 76.5 °F 40.6 °F 28% 30.09 in 10.0 mi North 5.8 mph - N/A   Scattered Clouds
1:35 AM 76.5 °F 40.3 °F 27% 30.09 in 10.0 mi Calm Calm - N/A   Scattered Clouds
1:55 AM 74.8 °F 41.0 °F 30% 30.09 in 10.0 mi Calm Calm - N/A   Scattered Clouds
2:15 AM 72.5 °F 40.6 °F 32% 30.09 in 10.0 mi Calm Calm - N/A   Clear
2:35 AM 71.8 °F 40.8 °F 33% 30.08 in 10.0 mi Calm Calm - N/A   Scattered Clouds
2:55 AM 70.9 °F 40.8 °F 34% 30.08 in 10.0 mi Calm Calm - N/A   Clear
3:15 AM 70.0 °F 40.3 °F 34% 30.08 in 10.0 mi Calm Calm - N/A   Clear
3:35 AM 71.8 °F 40.1 °F 32% 30.08 in 10.0 mi Calm Calm - N/A   Scattered Clouds
3:55 AM 69.8 °F 40.1 °F 34% 30.09 in 10.0 mi SSE 4.6 mph - N/A   Mostly Cloudy
4:15 AM 70.0 °F 40.5 °F 34% 30.09 in 10.0 mi Calm Calm - N/A   Scattered Clouds
4:35 AM 68.9 °F 40.6 °F 36% 30.09 in 10.0 mi NNW 3.5 mph - N/A   Clear
4:55 AM 68.9 °F 39.6 °F 34% 30.09 in 10.0 mi NNW 3.5 mph - N/A   Scattered Clouds
5:15 AM 67.6 °F 41.9 °F 39% 30.09 in 10.0 mi NW 6.9 mph - N/A   Scattered Clouds
5:35 AM 66.9 °F 42.3 °F 41% 30.11 in 10.0 mi West 6.9 mph - N/A Thunderstorm Thunderstorm
5:55 AM 69.4 °F 40.6 °F 35% 30.13 in 10.0 mi WSW 6.9 mph - N/A   Scattered Clouds
6:15 AM 72.5 °F 41.2 °F 32% 30.14 in 10.0 mi WSW 5.8 mph - N/A Thunderstorm Thunderstorm
6:35 AM 76.1 °F 45.0 °F 33% 30.12 in 10.0 mi ENE 13.8 mph 24.2 mph 0.01 in Rain Light Rain
6:55 AM 68.2 °F 45.9 °F 45% 30.13 in 10.0 mi NNW 3.5 mph - 0.01 in   Mostly Cloudy
7:15 AM 66.0 °F 51.8 °F 60% 30.13 in 10.0 mi NNW 9.2 mph - N/A   Clear
7:35 AM 70.7 °F 46.4 °F 42% 30.13 in 10.0 mi NNW 9.2 mph - N/A   Scattered Clouds
7:55 AM 72.9 °F 44.6 °F 36% 30.13 in 10.0 mi NNW 10.4 mph - N/A   Mostly Cloudy
8:15 AM 75.4 °F 43.5 °F 32% 30.14 in 10.0 mi NNW 8.1 mph - N/A   Scattered Clouds
8:35 AM 76.8 °F 43.2 °F 30% 30.15 in 10.0 mi North 9.2 mph - N/A   Scattered Clouds
8:55 AM 79.0 °F 43.2 °F 28% 30.15 in 10.0 mi North 10.4 mph - N/A   Clear
9:15 AM 81.1 °F 43.2 °F 26% 30.16 in 10.0 mi North 9.2 mph - N/A   Clear
9:35 AM 82.9 °F 40.8 °F 22% 30.15 in 10.0 mi NNE 8.1 mph - N/A   Clear
9:55 AM 84.0 °F 41.5 °F 22% 30.15 in 10.0 mi North 4.6 mph - N/A   Clear
10:15 AM 84.9 °F 41.2 °F 21% 30.14 in 10.0 mi NE 3.5 mph - N/A   Clear
10:35 AM 87.3 °F 40.5 °F 19% 30.14 in 10.0 mi North 4.6 mph - N/A   Clear
10:55 AM 89.4 °F 39.4 °F 17% 30.14 in 10.0 mi NNE 8.1 mph - N/A   Clear
11:15 AM 88.9 °F 37.4 °F 16% 30.14 in 10.0 mi NNE 6.9 mph - N/A   Clear
11:35 AM 89.4 °F 36.3 °F 15% 30.13 in 10.0 mi Calm Calm - N/A   Clear
11:55 AM 91.0 °F 36.1 °F 14% 30.12 in 10.0 mi East 6.9 mph - N/A   Clear
12:15 PM 91.6 °F 36.0 °F 14% 30.12 in 10.0 mi East 5.8 mph - N/A   Clear
12:35 PM 91.4 °F 35.8 °F 14% 30.11 in 10.0 mi NNE 3.5 mph - N/A   Clear
12:55 PM 92.8 °F 36.0 °F 14% 30.10 in 10.0 mi NNE 4.6 mph - N/A   Clear
1:15 PM 92.7 °F 36.5 °F 14% 30.09 in 10.0 mi ENE 5.8 mph - N/A   Clear
1:35 PM 91.8 °F 35.8 °F 14% 30.08 in 10.0 mi East 5.8 mph - N/A   Clear
1:55 PM 92.1 °F 35.6 °F 14% 30.07 in 10.0 mi East 5.8 mph - N/A   Clear
2:15 PM 93.7 °F 35.2 °F 13% 30.06 in 10.0 mi ESE 6.9 mph - N/A   Clear
2:35 PM 92.7 °F 34.5 °F 13% 30.06 in 10.0 mi East 4.6 mph - N/A   Clear
2:55 PM 94.6 °F 35.1 °F 12% 30.04 in 10.0 mi East 6.9 mph - N/A   Scattered Clouds
3:15 PM 95.5 °F 34.9 °F 12% 30.03 in 10.0 mi North 4.6 mph - N/A   Clear
3:35 PM 93.6 °F 34.0 °F 12% 30.02 in 10.0 mi SE 8.1 mph - N/A   Clear
3:55 PM 92.8 °F 33.1 °F 12% 30.01 in 10.0 mi South 3.5 mph - N/A   Clear
4:15 PM 92.3 °F 33.8 °F 13% 30.03 in 1.0 mi South 8.1 mph - N/A Thunderstorm Unknown
4:35 PM 82.9 °F 48.0 °F 29% 30.03 in 7.0 mi SE 13.8 mph 21.9 mph 0.01 in Rain , Thunderstorm Thunderstorms and Rain
4:55 PM 89.8 °F 43.3 °F 20% 30.00 in 10.0 mi ESE 9.2 mph - 0.01 in   Scattered Clouds
5:15 PM 91.9 °F 37.4 °F 15% 29.99 in 10.0 mi ESE 6.9 mph - N/A   Clear
5:35 PM 93.0 °F 35.4 °F 13% 29.98 in 10.0 mi ESE 8.1 mph - N/A   Clear
5:55 PM 92.5 °F 33.4 °F 12% 29.97 in 10.0 mi SE 4.6 mph - N/A   Clear
6:15 PM 93.0 °F 34.0 °F 12% 29.96 in 10.0 mi ESE 6.9 mph - N/A   Clear
6:35 PM 92.7 °F 33.8 °F 12% 29.96 in 10.0 mi SE 8.1 mph - N/A   Clear
6:55 PM 91.4 °F 35.1 °F 14% 29.96 in 10.0 mi SE 4.6 mph - N/A   Clear
7:15 PM 92.5 °F 33.4 °F 12% 29.95 in 10.0 mi East 3.5 mph - N/A   Clear
7:35 PM 91.4 °F 33.8 °F 13% 29.95 in 10.0 mi ESE 3.5 mph - N/A   Clear
7:55 PM 88.7 °F 36.3 °F 16% 29.96 in 10.0 mi SSE 6.9 mph - N/A   Clear
8:15 PM 86.4 °F 36.7 °F 17% 29.96 in 10.0 mi SSW 6.9 mph - N/A   Clear
8:35 PM 84.2 °F 38.1 °F 19% 29.96 in 10.0 mi South 4.6 mph - N/A   Clear
8:55 PM 81.7 °F 40.8 °F 23% 29.96 in 10.0 mi South 6.9 mph - N/A   Clear
9:15 PM 81.5 °F 38.7 °F 22% 29.97 in 10.0 mi SW 5.8 mph - N/A   Clear
9:35 PM 78.1 °F 39.7 °F 25% 29.98 in 10.0 mi WSW 5.8 mph - N/A   Clear
9:55 PM 80.6 °F 38.3 °F 22% 29.99 in 10.0 mi SSW 5.8 mph - N/A   Clear
10:15 PM 80.2 °F 41.0 °F 25% 30.00 in 10.0 mi SW 5.8 mph - N/A   Clear
10:35 PM 79.2 °F 39.7 °F 24% 30.01 in 10.0 mi Calm Calm - N/A   Clear
10:55 PM 76.1 °F 41.0 °F 28% 30.02 in 10.0 mi WSW 10.4 mph - N/A   Clear
11:15 PM 77.5 °F 41.9 °F 28% 30.02 in 10.0 mi WSW 8.1 mph - N/A   Clear
11:35 PM 79.2 °F 39.2 °F 24% 30.01 in 10.0 mi SSW 5.8 mph - N/A   Clear
11:55 PM 77.2 °F 40.1 °F 26% 30.01 in 10.0 mi South 4.6 mph - N/A   Clear